Location: Betpouey
(42.8833°N, 0.0333°E)
Time: 07:02:31
(UTC+00:00)

Cosmos 1869 Rocket - Pass Details

Date: 01 December 2020
Orbit: 604 x 634 km, 82.5° (Epoch: 17 January)

Event Time Altitude Azimuth Distance (km) Brightness Sun altitude
Rises 18:12:00 0° 357° (N) 2,941 6.9 -18.8°
Reaches altitude 10° 18:14:20 10° 3° (N) 2,027 6.0 -19.2°
Enters shadow 18:17:57 43° 48° (NE) 896 3.9 -19.8°
Exits shadow 18:22:41 12° 151° (SSE) 1,889 5.9 -20.7°
Drops below altitude 10° 18:22:58 10° 153° (SSE) 2,000 6.0 -20.7°
Sets 18:25:15 0° 159° (SSE) 2,898 6.9 -21.2°
